Regional Weather Roundup
Issued by NWS

Home | Current Version | Previous Version | Graphics & Text | Print | Product List | Glossary On
Versions: 1 2 3 4 5 6 7 8 9 10 11 12 13 14 15 16 17 18 19 20 21 22 23 24 25 26 27 28 29 30 31 32 33 34 35 36 37 38 39 40 41 42 43 44 45 46 47 48 49 50
000
ASUS43 KBIS 232310
RWRND

NORTH DAKOTA REGIONAL WEATHER ROUNDUP
NATIONAL WEATHER SERVICE BISMARCK ND
600 PM CDT MON APR 23 2018

NOTE: "FAIR" INDICATES FEW OR NO CLOUDS BELOW 12,000 FEET WITH NO
SIGNIFICANT WEATHER AND/OR OBSTRUCTIONS TO VISIBILITY.


NDZ001>003-009>011-017-240000-
NORTHWEST NORTH DAKOTA

CITY           SKY/WX    TMP DP  RH WIND       PRES   REMARKS
WILLISTON      CLOUDY    52  25  35 N21       30.30S
MINOT          CLOUDY    53  33  46 NW15      30.24R
$$

NDZ018>021-031>035-040>046-240000-
SOUTHWEST NORTH DAKOTA

CITY           SKY/WX    TMP DP  RH WIND       PRES   REMARKS
BISMARCK       CLOUDY    60  31  33 NE18      30.16S
DICKINSON      CLOUDY    47  33  58 N18G26    30.19S
GARRISON         N/A     50  35  56 N14G22    30.23R
HETTINGER ARPT CLOUDY    53  29  39 NE35G43   30.12R
$$

NDZ004>008-012>016-024-026-027-054-240000-
NORTHEAST NORTH DAKOTA

CITY           SKY/WX    TMP DP  RH WIND       PRES   REMARKS
GRAND FORKS    PTSUNNY   60  36  40 NE12      30.16S
DEVILS LAKE    FAIR      57  34  41 N14       30.19S
$$

NDZ022-023-025-028>030-036>039-047>053-240000-
SOUTHEAST NORTH DAKOTA

CITY           SKY/WX    TMP DP  RH WIND       PRES   REMARKS
FARGO          FAIR      65  40  39 N14       30.14S
JAMESTOWN      CLOUDY    62  36  37 N14       30.15R
$$





USA.gov is the U.S. government's official web portal to all federal, state and local government web resources and services.